Home   Weather   Crawley   Past weeks

Flag for United Kingdom Past Weather in Crawley, England, United Kingdom — Yesterday and Last 2 Weeks

Now
55 °F

Passing clouds.


Feels Like: 53 °F
Forecast: 43 / 60 °F
Wind: 8 mph from Southwest

Location: London / Gatwick Airport

Current Time: Apr 23, 2017 at 7:17:00 pm

Latest Report: Apr 23, 2017 at 6:20 pm


Visibility: N/A

Pressure: 30.24 "Hg

Humidity: 67%

Dew Point: 45 °F

Location of CrawleyLocation

Past Weather in Crawley — Graph

°F

Crawley Temperature Yesterday

Maximum temperature yesterday: 57 °F (at 2:50 pm)
Minimum temperature yesterday: 41 °F (at 10:50 pm)
Average temperature yesterday: 52 °F

High & Low Weather Summary for the Past Weeks

 TemperatureHumidityPressure
High72 °F (Apr 9, 12:50 pm)100% (Apr 9, 6:20 am)30.63 "Hg (Apr 9, 6:20 am)
Low34 °F (Apr 19, 4:20 am)31% (Apr 18, 4:20 pm)29.98 "Hg (Apr 14, 6:20 pm)
Average51 °F66%30.27 "Hg
* Reported Apr 8 6:20 pm — Apr 23 6:20 pm, Crawley, Weather by CustomWeather, © 2017

Note: Actual official high and low records may vary slightly from our data, if they occured in-between our weather recording intervals... More about our weather records

Advertising

Crawley Weather History for the Previous 24 Hours

Scroll right to see more
 ConditionsComfort  
Time TempWeatherWind HumidityBarometerVisibility
6:20 pm
Sun, Apr 23
55 °FPassing clouds.8 mph67%30.24 "HgN/A
5:50 pm54 °FPassing clouds.9 mph67%30.24 "HgN/A
5:20 pm55 °FPassing clouds.10 mph67%30.24 "HgN/A
4:50 pm55 °FScattered clouds.10 mph67%30.24 "HgN/A
4:20 pm55 °FScattered clouds.8 mph67%30.24 "HgN/A
3:50 pm55 °FScattered clouds.8 mph67%30.27 "HgN/A
3:20 pm55 °FScattered clouds.10 mph63%30.27 "HgN/A
2:50 pm55 °FScattered clouds.9 mph63%30.27 "HgN/A
2:20 pm55 °FPartly sunny.8 mph63%30.27 "HgN/A
1:50 pm54 °FPartly sunny.8 mph63%30.30 "HgN/A
1:20 pm55 °FBroken clouds.9 mph59%30.30 "HgN/A
12:50 pm54 °FScattered clouds.7 mph63%30.30 "HgN/A
12:20 pm55 °FScattered clouds.8 mph59%30.30 "HgN/A
11:50 am55 °FPartly sunny.6 mph59%30.33 "HgN/A
11:20 am54 °FPartly sunny.7 mph63%30.33 "HgN/A
10:50 am54 °FScattered clouds.7 mph63%30.33 "HgN/A
10:20 am52 °FBroken clouds.7 mph67%30.33 "HgN/A
9:50 am52 °FPassing clouds.9 mph67%30.33 "HgN/A
9:20 am50 °FPassing clouds.8 mph67%30.36 "HgN/A
8:50 am48 °FPartly sunny.7 mph71%30.36 "HgN/A
8:20 am48 °FBroken clouds.5 mph71%30.36 "HgN/A
7:50 am46 °FOvercast.5 mph76%30.33 "HgN/A
7:20 am45 °FPartly sunny.2 mph76%30.33 "HgN/A
6:50 am45 °FPartly sunny.2 mph81%30.33 "HgN/A
6:20 am43 °FPartly sunny.3 mph87%30.33 "HgN/A
5:50 am43 °FPartly sunny.3 mph87%30.33 "HgN/A
5:20 am43 °FPassing clouds.5 mph87%30.33 "HgN/A
4:50 am43 °FPassing clouds.6 mph87%30.33 "HgN/A
4:20 am43 °FPassing clouds.5 mph87%30.33 "HgN/A
3:50 am43 °FPassing clouds.5 mph87%30.33 "HgN/A
3:20 am41 °FPassing clouds.3 mph93%30.33 "HgN/A
2:50 am39 °FPassing clouds.5 mph93%30.36 "HgN/A
2:20 am43 °FPassing clouds.5 mph87%30.36 "HgN/A
1:50 am45 °FPassing clouds.5 mph81%30.36 "HgN/A
1:20 am46 °FPassing clouds.6 mph82%30.36 "HgN/A
12:50 am43 °FPassing clouds.5 mph93%30.36 "HgN/A
12:20 am41 °FPassing clouds.5 mph87%30.36 "HgN/A
11:50 pm
Sat, Apr 22
46 °FClear.5 mph82%30.36 "Hg10 mi
11:20 pm45 °FClear.5 mph87%30.36 "Hg10 mi
10:50 pm41 °FClear.6 mph87%30.36 "Hg10 mi
10:20 pm46 °FClear.2 mph82%30.36 "Hg10 mi
9:50 pm48 °FClear.3 mph76%30.36 "Hg10 mi
9:20 pm48 °FClear.6 mph76%30.33 "Hg10 mi
8:50 pm50 °FPassing clouds.8 mph71%30.33 "HgN/A
8:20 pm52 °FClear.8 mph67%30.33 "Hg10 mi
7:50 pm52 °FScattered clouds.8 mph72%30.33 "HgN/A
7:20 pm54 °FScattered clouds.9 mph72%30.30 "HgN/A
Weather by CustomWeather, © 2017

See weather overviewHow to use our weather pages